Weather Roundup
Issued by NWS

Home | Current Version | Previous Version | Graphics & Text | Print | Product List | Glossary Off
Versions: 1 2 3 4 5 6 7 8 9 10 11 12 13 14 15 16 17 18 19 20 21 22 23 24 25 26 27 28 29 30 31 32 33 34 35 36 37 38 39 40 41 42 43 44 45 46 47 48 49 50

000
NZUS93 KARX 312210
HRRWXR

CURRENT HOURLY OBSERVATIONS ACROSS
MUCH OF THE UPPER MISSISSIPPI VALLEY
NATIONAL WEATHER SERVICE LA CROSSE WI
500 PM CDT THU JUL 31 2014


...SOUTHEAST MINNESOTA...


CITY           SKY/WX    TMP DP  RH WIND       PRES   REMARKS
ROCHESTER      SUNNY     79  56  45 W9        30.05F
ROCHESTER/MAYO FAIR      79  49  35 W9        30.03F
WINONA         SUNNY     81  55  41 NW6       30.01F
AUSTIN         MOSUNNY   79  52  38 CALM      30.04F
ALBERT LEA     SUNNY     81  52  36 W6        30.04F
DODGE CENTER   SUNNY     79  54  41 W8        30.04F
PRESTON        MOSUNNY   77  61  58 W7        30.05S
OWATONNA       SUNNY     81  54  39 W7        30.04S
FARIBAULT      MOSUNNY   84  46  26 W10       30.03F
$$

...ELSEWHERE IN MINNESOTA...


CITY           SKY/WX    TMP DP  RH WIND       PRES   REMARKS
MINNEAPOLIS    MOSUNNY   83  52  34 W7        30.00F
INTNL FALLS    SUNNY     77  54  44 NW9       29.99R
DULUTH         MOSUNNY   79  53  40 NW12      29.98S
RED WING       MOSUNNY   82  54  36 W8        29.98F
REDWOOD FALLS  MOSUNNY   83  53  35 NW7       30.02F
MANKATO        SUNNY     81  52  36 NW9       30.03F
WORTHINGTON    SUNNY     75  57  53 SW6       30.07S
FAIRMONT       MOSUNNY   82  55  39 NE3       30.04F
$$

...SOUTHWEST WISCONSIN...


CITY           SKY/WX    TMP DP  RH WIND       PRES   REMARKS
LA CROSSE      SUNNY     83  56  39 W9        30.00S
PRAIRIE DU CHI SUNNY     82  50  33 W8        30.01F
BOSCOBEL       MOSUNNY   82  57  42 W7        30.02S
LONE ROCK      PTSUNNY   84  59  42 W9        30.01S
PLATTEVILLE    MOSUNNY   79  58  47 W12       30.05S
FORT MC COY    SUNNY     80  56  43 W7        30.02S
CAMP DOUGLAS   MOSUNNY   79  63  57 W12       30.00S
VIROQUA        FAIR      77  56  47 W7        30.04S
WIS DELLS      MOSUNNY   80  51  36 NW12      30.00S
$$

...ELSEWHERE IN WISCONSIN...


CITY           SKY/WX    TMP DP  RH WIND       PRES   REMARKS
MILWAUKEE      PTSUNNY   82  55  39 SW13      29.99S
MADISON        PTSUNNY   81  58  45 VRB7      30.01S
GREEN BAY      MOSUNNY   79  61  53 W8        29.96R
EAU CLAIRE     SUNNY     81  58  45 SW12      29.98F
BLACK RVR FLS  FAIR      81  57  43 W10       29.99F
MEDFORD        MOSUNNY   69  59  69 W7        30.00S
WAUSAU         LGT RAIN  72  63  73 NW6       29.97R
WIS RAPIDS     PTSUNNY   79  60  52 NW7       30.00R
MARSHFIELD     MOSUNNY   79  60  52 W10       30.00R
RICE LAKE      PTSUNNY   76  60  58 W6        30.01S
$$

...NORTHEAST IOWA...


CITY           SKY/WX    TMP DP  RH WIND       PRES   REMARKS
WATERLOO       SUNNY     81  53  37 NW9       30.03F
DUBUQUE        MOSUNNY   78  58  49 W8        30.05S
DECORAH        SUNNY     77  54  44 W7        30.03F
MASON CITY     MOSUNNY   80  56  43 W12       30.06F
CHARLES CITY   MOSUNNY   79  59  50 NW8       30.05S
OELWEIN        SUNNY     79  55  44 W9        30.05F
$$

...ELSEWHERE IN IOWA...


CITY           SKY/WX    TMP DP  RH WIND       PRES   REMARKS
DES MOINES     PTSUNNY   81  54  39 W6        30.04F
IOWA CITY      MOSUNNY   80  60  50 SW7       30.05F
FORT DODGE     MOSUNNY   79  57  47 W6        30.06F
MARSHALLTOWN   MOSUNNY   79  58  48 W3        30.05F
CEDAR RAPIDS   MOSUNNY   78  60  53 W6        30.04F
$$

...NORTHERN ILLINOIS...


CITY           SKY/WX    TMP DP  RH WIND       PRES   REMARKS
CHICAGO-OHARE  MOSUNNY   83  54  36 W14       30.01F
DUPAGE         MOSUNNY   81  57  43 W13G20    30.02F
CHICAGO-MIDWAY MOSUNNY   84  57  39 W14G21    30.01F
MOLINE         MOSUNNY   83  59  44 NW8       30.04S
ROCKFORD       MOSUNNY   82  57  42 W13       30.04F
STERLING       MOSUNNY   82  63  51 NW13      30.04F
PEORIA         SUNNY     83  58  42 W7        30.06S
$$

NOTE: "FAIR" INDICATES FEW OR NO CLOUDS BELOW 12,000 FEET WITH NO
SIGNIFICANT WEATHER AND/OR OBSTRUCTIONS TO VISIBILITY. WIND
SPEEDS ARE IN MILES-PER-HOUR.



USA.gov is the U.S. government's official web portal to all federal, state and local government web resources and services.